Voltar ao catálogo

COSMOS 1842

AtivoMilitarPO
NORAD 17911·PAYLOAD·🇷🇺 Russia

Lançado Apr 27, 1987 de Plesetsk Cosmodrome

Loading…

Próximas Passagens (próximas 24 horas)

TLE

AtualizadoSource: Space-Track

Época: Sep 14, 2026, 11:20 UTC

1 17911U 87038A   26257.47286954  .00026282  00000-0  29772-3 0  9992
2 17911  82.4996  80.6542 0003341 339.2894  20.8228 15.62242053154690

Acompanhe COSMOS 1842 em tempo real com AllMySat

Download on the App Store